Regional Weather Roundup
Issued by NWS Midland/Odessa, TX

Skip options and go directly to product.
Home | Oldest Version | Previous Version | Current Version | All | Text Only | Save Text | Print | Product List | Glossary On

Skip product version selection by date and time.   
520
ASUS44 KMAF 280810
RWRMAF
MIDLAND AREA WEATHER ROUNDUP
NATIONAL WEATHER SERVICE MIDLAND TX
300 AM CDT MON JUL 28 2014

...IN SOUTHWEST TEXAS AND SOUTHEAST NEW MEXICO...

CITY           SKY/WX    TMP DP  RH WIND       PRES   REMARKS
ALPINE         CLEAR     77  55  47 CALM      30.26S
ANDREWS        FAIR      78  57  48 S5        30.15F
ARTESIA        PTCLDY    82  59  44 SE8       30.15S
BIG SPRING     CLEAR     82  54  38 SE6       30.14S
CARLSBAD       PTCLDY    85  58  39 SE10      30.12S
DRYDEN           N/A     87  61  41 E14       30.07R
FORT STOCKTON  CLEAR     80  57  45 SE13      30.12F
GUAD PASS      PTCLDY    75  57  53 NE20        N/A
HOBBS          MOCLDY    77  57  50 SE7       30.19F
MARFA          PTCLDY    72  55  56 E3        30.25F
MIDLAND AIRPK  CLEAR     83  55  38 S6        30.13F
MIDLAND INTL   CLEAR     81  57  43 SE7       30.13S
ODESSA         CLEAR     83  57  41 S8        30.14F
PECOS          CLEAR     83  55  37 SE10      30.07F
PRESIDIO       FAIR      87  59  38 NE9       30.06S
SEMINOLE       CLEAR     77  56  48 S5        30.17S
SNYDER         CLEAR     82  60  47 S9        30.12S
WINK           CLEAR     84  56  38 SE8       30.09F
$$
...OTHER STATIONS IN TEXAS...

CITY           SKY/WX    TMP DP  RH WIND       PRES   REMARKS
ABILENE        CLOUDY    82  62  50 S7        30.08F
AMARILLO       CLOUDY    72  55  55 E9        30.26S
AUSTIN         CLEAR     76  71  85 S7        30.05F
BROWNSVILLE    CLEAR     80  77  90 SE8       30.03F
CORPUS CHRISTI PTCLDY    76  74  93 S6        30.04F
DALLAS FTW     MOCLDY    87  68  52 SW12      30.02S
DEL RIO        CLEAR     86  68  54 E12       30.02R
EL PASO        MOCLDY    83  53  35 NW5       30.14R
HOUSTON INT    PTCLDY    81  76  84 SW6       30.04F
LUBBOCK        PTCLDY    77  67  71 NE10      30.18S
SAN ANGELO     CLEAR     80  60  50 S7        30.07F
SAN ANTONIO    CLEAR     79  71  76 SE8       30.07F
WACO           CLEAR     81  71  71 S9        30.04R
WICHITA FALLS  NOT AVBL
$$
...OTHER LOCATIONS IN NEW MEXICO...

CITY           SKY/WX    TMP DP  RH WIND       PRES   REMARKS
ALAMAGORDO     CLOUDY    73  63  68 S8        30.22R THUNDER
ALBUQUERQUE    MOCLDY    73  57  57 NW9       30.34S
CANNON AFB     PTCLDY    74  63  69 E10       30.27R
CLOVIS         NOT AVBL
HOLLOMAN AFB   TSTM      77  61  57 S5        30.20R
ROSWELL        PTCLDY    81  55  40 E6        30.16S
RUIDOSO        LGT RAIN  64  54  68 SE16G22   30.45R
SANTA FE       CLOUDY    62  56  80 N18G26    30.42S
TRUTH OR CONSE LGT RAIN  74  58  57 SW13      30.27R
TUCUMCARI      CLOUDY    73  61  65 N23       30.31R
$$

USA.gov is the U.S. government's official web portal to all federal, state and local government web resources and services.